| Date | Time | Temp. (oF) | Dew Point (oF) | Rel. Hum. (%) | Press. (in.) | Wind Dir. | Wind Speed (mph) | Hourly Rainfall (in.) |
|
|---|---|---|---|---|---|---|---|---|---|
| 1 | 05/01 | 00:00 | 52 | 46 | 81 | 29.85 | E | 2 | 0.00 |
| 2 | 04/30 | 23:00 | 53 | 45 | 77 | 29.84 | ESE | 3 | 0.00 |
| 3 | 04/30 | 22:00 | 55 | 46 | 74 | 29.82 | ESE | 6 | 0.00 |
| 4 | 04/30 | 21:00 | 57 | 47 | 70 | 29.79 | S | 3 | 0.00 |
| 5 | 04/30 | 20:00 | 59 | 47 | 66 | 29.74 | ENE | 7 | 0.00 |
| 6 | 04/30 | 19:00 | 62 | 48 | 61 | 29.71 | ESE | 9 | 0.00 |
| 7 | 04/30 | 18:00 | 63 | 47 | 58 | 29.68 | SSE | 9 | 0.00 |
| 8 | 04/30 | 17:00 | 70 | 48 | 47 | 29.65 | ENE | 8 | 0.00 |
| 9 | 04/30 | 16:00 | 72 | 49 | 45 | 29.65 | NNE | 11 | 0.00 |
| 10 | miss | miss | miss | miss | miss | miss | miss | miss | |
| 11 | 0 | 06MPH | 0 | -74 | 1 | 72.51 | 078F | 0 | 0.00 |
| 12 | miss | miss | miss | miss | miss | miss | miss | miss | |
| 13 | 0 | 06MPH | 0 | -74 | 1 | 72.51 | 078F | 0 | 0.00 |
| 14 | miss | miss | miss | miss | miss | miss | miss | miss | |
| 15 | 0 | 06MPH | 0 | -74 | 1 | 72.51 | 078F | 0 | 0.00 |
| 16 | miss | miss | miss | miss | miss | miss | miss | miss | |
| 17 | 0 | 06MPH | 0 | -74 | 1 | 72.51 | 078F | 0 | 0.00 |
| 18 | miss | miss | miss | miss | miss | miss | miss | miss | |
| 19 | 04/30 | 12:58 | 68 | 48 | 50 | 29.68 | E | 0 | 0.00 |
| 20 | 04/30 | 12:57 | 69 | 52 | 55 | 29.68 | E | 7 | 0.00 |
| 21 | 04/30 | 12:56 | 68 | 51 | 55 | 29.68 | E | 10 | 0.00 |
| 22 | 04/30 | 12:55 | 68 | 51 | 55 | 29.68 | E | 6 | 0.00 |
| 23 | miss | miss | miss | miss | miss | miss | miss | miss | |
| 24 | 04/30 | 12:53 | 68 | 51 | 55 | 29.68 | ESE | 9 | 0.00 |
| 25 | miss | miss | miss | miss | miss | miss | miss | miss | |
| 26 | 04/30 | 12:52 | 68 | 48 | 50 | 29.68 | ENE | 8 | 0.00 |
| 27 | miss | miss | miss | miss | miss | miss | miss | miss | |
| 28 | 04/30 | 12:52 | 68 | 48 | 50 | 29.68 | ENE | 8 | 0.00 |
| 29 | miss | miss | miss | miss | miss | miss | miss | miss | |
| 30 | 04/30 | 12:52 | 68 | 48 | 50 | 29.68 | ENE | 8 | 0.00 |
| 31 | miss | miss | miss | miss | miss | miss | miss | miss | |
| 32 | 04/30 | 12:52 | 68 | 48 | 50 | 29.68 | ENE | 8 | 0.00 |
| 33 | miss | miss | miss | miss | miss | miss | miss | miss | |
| 34 | 04/30 | 12:52 | 68 | 48 | 50 | 29.68 | ENE | 8 | 0.00 |
| 35 | miss | miss | miss | miss | miss | miss | miss | miss | |
| 36 | 04/30 | 12:52 | 68 | 48 | 50 | 29.68 | ENE | 8 | 0.00 |
| 37 | 04/30 | 12:00 | 65 | 51 | 62 | 29.70 | E | 8 | 0.00 |
| 38 | 04/30 | 11:00 | 61 | 49 | 65 | 29.70 | E | 5 | 0.00 |
| 39 | 04/30 | 10:00 | 59 | 48 | 67 | 29.71 | E | 5 | 0.00 |
| 40 | 04/30 | 09:00 | 56 | 46 | 71 | 29.71 | SSE | 5 | 0.00 |
| 41 | 04/30 | 08:00 | 51 | 45 | 82 | 29.70 | E | 7 | 0.00 |
| 42 | 04/30 | 07:00 | 46 | 43 | 91 | 29.69 | E | 5 | 0.00 |
| 43 | 04/30 | 06:00 | 44 | 41 | 90 | 29.67 | E | 0 | 0.00 |
| 44 | 04/30 | 05:00 | 47 | 43 | 86 | 29.65 | E | 0 | 0.00 |
| 45 | 04/30 | 04:00 | 50 | 44 | 81 | 29.64 | NNE | 0 | 0.00 |
| 46 | 04/30 | 03:00 | 51 | 42 | 74 | 29.64 | ESE | 0 | 0.00 |
| 47 | 04/30 | 02:00 | 55 | 44 | 68 | 29.65 | WSW | 0 | 0.00 |
| 48 | 04/30 | 01:00 | 54 | 44 | 71 | 29.66 | SSE | 0 | 0.00 |
| 49 | 04/30 | 00:00 | 56 | 45 | 67 | 29.65 | W | 0 | 0.00 |
| 50 | 04/29 | 23:00 | 56 | 43 | 63 | 29.65 | SW | 0 | 0.00 |
| 51 | 04/29 | 22:00 | 59 | 42 | 54 | 29.65 | SSW | 0 | 0.00 |
| 52 | 04/29 | 21:00 | 63 | 41 | 46 | 29.63 | SSW | 0 | 0.00 |
| 53 | 04/29 | 20:00 | 68 | 40 | 37 | 29.62 | SSW | 0 | 0.00 |
| 54 | 04/29 | 19:00 | 71 | 40 | 34 | 29.62 | S | 2 | 0.00 |
| 55 | 04/29 | 18:00 | 71 | 40 | 33 | 29.62 | W | 9 | 0.00 |
| 56 | 04/29 | 17:00 | 73 | 40 | 31 | 29.63 | NW | 3 | 0.00 |
| 57 | 04/29 | 16:00 | 72 | 40 | 32 | 29.64 | WSW | 9 | 0.00 |
| 58 | 04/29 | 15:00 | 73 | 44 | 36 | 29.66 | WSW | 4 | 0.00 |
| 59 | 04/29 | 14:00 | 72 | 43 | 36 | 29.68 | W | 10 | 0.00 |
| 60 | 04/29 | 13:00 | 70 | 43 | 38 | 29.70 | NNW | 7 | 0.00 |
| 61 | 04/29 | 12:00 | 68 | 48 | 49 | 29.73 | WNW | 3 | 0.00 |
| 62 | 04/29 | 11:00 | 65 | 45 | 50 | 29.75 | SW | 3 | 0.00 |
| 63 | 04/29 | 10:00 | 62 | 45 | 54 | 29.77 | W | 3 | 0.00 |
| 64 | 04/29 | 09:00 | 59 | 43 | 57 | 29.78 | WNW | 6 | 0.00 |
| 65 | 04/29 | 08:00 | 50 | 46 | 89 | 29.80 | SW | 3 | 0.00 |
| 66 | 04/29 | 07:00 | 42 | 39 | 92 | 29.79 | SSW | 0 | 0.00 |
| 67 | 04/29 | 06:00 | 43 | 39 | 89 | 29.79 | WSW | 0 | 0.00 |
| 68 | 04/29 | 05:00 | 45 | 40 | 83 | 29.78 | S | 0 | 0.00 |
| 69 | 04/29 | 04:00 | 45 | 40 | 85 | 29.79 | WSW | 0 | 0.00 |
| 70 | 04/29 | 03:00 | 47 | 41 | 80 | 29.79 | W | 0 | 0.00 |
| 71 | 04/29 | 02:00 | 47 | 39 | 76 | 29.80 | SSW | 0 | 0.00 |
| 72 | 04/29 | 01:00 | 50 | 40 | 71 | 29.81 | W | 3 | 0.00 |
| 73 | 04/29 | 00:00 | 51 | 40 | 68 | 29.80 | S | 0 | 0.00 |
| 74 | 04/28 | 23:00 | 56 | 39 | 53 | 29.79 | W | 0 | 0.00 |
| 75 | 04/28 | 22:00 | 61 | 38 | 44 | 29.78 | N | 3 | 0.00 |
| 76 | 04/28 | 21:00 | 63 | 38 | 41 | 29.77 | N | 4 | 0.00 |